[[{"header":{"parameterUnit":"m.s-1","parameterCategory":1,"la1":30.2991,"la2":30.254,"lo1":-89.0895,"lo2":-89.0444,"dy":0.0017,"dx":0.0017,"nx":28,"ny":28,"refTime":"2025-06-09T03:00:00:Z","depth":0,"parameterNumber":2,"parameterNumberName":"U-component_of_WINDS"},"data":[0,0,0,0,0,0,0,0,0,0,0,0,0,0,0,0,0,0,0,0,0,0,0,0,0,0,0,0,0,0,0,0,0,0,0,0,0,0,0,0,0,0,0,0,0,0,0,0,0,0,0,0,0,0,0,0,0,0,0.8038,0.804,0,0.8226,0.8228,0.823,0.8342,0.8343,0.8343,0.8344,0.8538,0.8543,0.8548,0,0,0,0,0,0,0,0,0,0,0,0,0,0.7778,0.7782,0.8037,0.804,0.8042,0.8225,0.8228,0.8231,0.8342,0.8343,0.8344,0.8344,0.8537,0.8542,0.8548,0,0,0,0,0,0,0,0,0,0,0,0,0,0.7921,0.7784,0.8037,0.812,0.8129,0.8225,0.8228,0.8231,0.8342,0.8343,0.8344,0.8344,0.8535,0.8542,0.8549,0.8577,0,0,0.857,0.8573,0,0,0,0,0,0,0,0,0.7913,0.793,0.8105,0.8114,0.8125,0.8261,0.8208,0.8347,0.8342,0.8261,0.8344,0.8345,0.8446,0.846,0.8494,0.8586,0.8595,0.8571,0.8575,0.8578,0.858,0,0,0,0,0,0,0,0.7903,0.7923,0.8112,0.8108,0.812,0.8149,0.817,0.8235,0.8347,0.8268,0.8277,0.8298,0.8451,0.8487,0.8499,0.8598,0.8571,0.8577,0.8581,0.8584,0.8727,0.8726,0,0,0,0,0,0,0.7879,0.7914,0.8106,0.8118,0.8018,0.8153,0.8177,0.8217,0.8347,0.8367,0.8297,0.8302,0.8474,0.8491,0.8507,0.8552,0.8578,0.8585,0.8589,0.8727,0.8727,0.8726,0,0,0,0,0,0,0.7873,0.7895,0.8099,0.8018,0.8046,0.8157,0.8201,0.822,0.8256,0.8368,0.8389,0.8312,0.8476,0.8497,0.856,0.856,0.8588,0.8595,0.8728,0.8727,0.8727,0.8639,0,0,0,0,0,0,0.7865,0.7892,0.7903,0.8018,0.805,0.8147,0.8201,0.8223,0.8268,0.8276,0.8388,0.8408,0.8478,0.8548,0.8567,0.857,0.86,0.8728,0.8728,0.8727,0.8642,0.8635,0.8629,0,0,0,0,0,0.7856,0.7871,0.7903,0.7926,0.8066,0.8147,0.8166,0.8246,0.8267,0.828,0.8353,0.8404,0.8556,0.8554,0.8575,0.8581,0.8729,0.8728,0.8727,0.8645,0.8637,0.863,0,0,0,0,0,0,0.7754,0.7887,0.7925,0.7977,0.805,0.8166,0.8184,0.8234,0.8302,0.8307,0.8404,0.8429,0.8483,0.8538,0.8533,0.8617,0.8648,0.8652,0.8579,0.8572,0.8566,0.8552,0.8606,0,0,0,0,0,0.7738,0.7791,0.7905,0.7941,0.7975,0.8073,0.8111,0.8167,0.8246,0.8277,0.8354,0.843,0.8496,0.8536,0.8602,0.865,0.8678,0.8665,0.8658,0.8652,0.8655,0.8687,0.8684,0.8723,0.8723,0.8723,0,0,0.7705,0.7784,0.7812,0.7922,0.7985,0.804,0.8098,0.8153,0.8195,0.8286,0.8351,0.841,0.8501,0.8557,0.8586,0.8605,0.865,0.8651,0.8645,0.8651,0.8686,0.8682,0.8679,0.8722,0.8722,0.8723,0,0,0.7673,0.7737,0.7776,0.7837,0.7932,0.7997,0.8006,0.8115,0.8158,0.8224,0.8294,0.8346,0.8455,0.8519,0.8565,0.8559,0.861,0.8577,0.8544,0.8575,0.8572,0.857,0.857,0.8569,0.8579,0.8579,0.8578,0,0.7621,0.7705,0.7789,0.7841,0.7888,0.7972,0.8013,0.8069,0.818,0.8212,0.8231,0.8372,0.8439,0.8513,0.8512,0.8545,0.856,0.8566,0.8565,0.8564,0.8563,0.8565,0.8565,0.8574,0.8575,0.8575,0.8576,0,0.7638,0.7695,0.7715,0.782,0.787,0.7915,0.8007,0.8048,0.8099,0.8162,0.8231,0.8314,0.84,0.8421,0.8471,0.8503,0.8512,0.8546,0.8581,0.8554,0.8557,0.8558,0.8568,0.857,0.8571,0.8572,0,0,0.7548,0.77,0.7706,0.7756,0.7867,0.7914,0.7964,0.8048,0.8082,0.8155,0.8202,0.8293,0.8327,0.8379,0.8437,0.8464,0.8457,0.8496,0.85,0.8489,0.8501,0.8476,0.8475,0.8491,0.8491,0.8492,0.8494,0,0.7535,0.7629,0.7707,0.7772,0.7828,0.791,0.7954,0.8027,0.8088,0.8146,0.8214,0.8278,0.8316,0.8349,0.8378,0.8452,0.8462,0.8452,0.8538,0.854,0.8514,0.8476,0.845,0.8448,0.8496,0.8496,0.8496,0,0.7533,0.7604,0.7675,0.7782,0.7809,0.7847,0.7931,0.7984,0.807,0.8113,0.8171,0.8232,0.8291,0.8318,0.8402,0.8394,0.8433,0.8475,0.8477,0.849,0.8518,0.8491,0.8449,0.8449,0.8498,0.8498,0.8498,0,0.7464,0.7577,0.7636,0.7675,0.7801,0.7826,0.788,0.7967,0.8013,0.8086,0.8118,0.8197,0.8241,0.8302,0.8383,0.8395,0.846,0.8493,0.8499,0.8497,0.8511,0.8509,0.8477,0.8531,0.8531,0.8531,0.8531,0,0.7443,0.7484,0.7607,0.7643,0.7692,0.7781,0.7828,0.7888,0.7965,0.8015,0.809,0.8136,0.824,0.8299,0.8363,0.8424,0.8443,0.8481,0.8498,0.8476,0.8471,0.8504,0.8508,0.8532,0.8532,0.8532,0.8532,0,0.7376,0.7459,0.7528,0.7641,0.7671,0.7702,0.78,0.7839,0.7904,0.7968,0.7988,0.809,0.8164,0.8251,0.8352,0.8396,0.8453,0.8476,0.8424,0.8434,0.8437,0.8436,0.8427,0.8431,0.8479,0.8478,0.8478,0,0.7358,0.7392,0.7509,0.7548,0.7599,0.7661,0.7708,0.7797,0.7844,0.7945,0.7973,0.8052,0.812,0.8234,0.8319,0.8398,0.8426,0.8417,0.8438,0.8416,0.8429,0.8427,0.8432,0.8412,0.8411,0.841,0.8409,0,0.7319,0.7359,0.7424,0.7504,0.7559,0.7626,0.7697,0.7725,0.7829,0.7878,0.7954,0.8007,0.8111,0.819,0.828,0.8337,0.8391,0.8402,0.8408,0.8387,0.8356,0.8376,0.8411,0.8402,0.8403,0.8403,0.8404,0.8404,0.7278,0.7313,0.7401,0.7472,0.7534,0.7599,0.7642,0.7712,0.7777,0.7869,0.7918,0.7993,0.8081,0.8207,0.8262,0.8324,0.8343,0.8351,0.8354,0.8355,0.835,0.8344,0.834,0.8341,0.8341,0.8341,0.8342,0,0.7245,0.7306,0.737,0.7467,0.7523,0.7568,0.7649,0.7694,0.7759,0.7835,0.7901,0.799,0.8067,0.8158,0.8241,0.8273,0.83,0.8292,0.8292,0.8305,0.8327,0.8314,0.8269,0.8269,0.8269,0.8269,0.8269,0.8269,0.7235,0.7297,0.7347,0.7441,0.7503,0.7577,0.762,0.7681,0.7743,0.7838,0.7902,0.796,0.8044,0.8134,0.8207,0.8232,0.826,0.8245,0.8278,0.8297,0.8303,0.8309,0.8298,0.825,0.825,0.8251,0.8251,0.8251]},{"header":{"parameterUnit":"m.s-1","parameterCategory":1,"la1":30.2991,"la2":30.254,"lo1":-89.0895,"lo2":-89.0444,"dy":0.0017,"dx":0.0017,"nx":28,"ny":28,"refTime":"2025-06-09T03:00:00:Z","depth":0,"parameterNumber":3,"parameterNumberName":"V-component_of_WINDS"},"data":[0,0,0,0,0,0,0,0,0,0,0,0,0,0,0,0,0,0,0,0,0,0,0,0,0,0,0,0,0,0,0,0,0,0,0,0,0,0,0,0,0,0,0,0,0,0,0,0,0,0,0,0,0,0,0,0,0,0,0.1755,0.1755,0,0.1693,0.1692,0.1692,0.1599,0.1598,0.1596,0.1595,0.1534,0.1534,0.1534,0,0,0,0,0,0,0,0,0,0,0,0,0,0.1795,0.1795,0.1755,0.1754,0.1754,0.1693,0.1692,0.1691,0.16,0.1598,0.1596,0.1594,0.1534,0.1534,0.1534,0,0,0,0,0,0,0,0,0,0,0,0,0,0.176,0.1795,0.1755,0.1701,0.1695,0.1693,0.1692,0.1691,0.16,0.1598,0.1595,0.1593,0.1534,0.1534,0.1534,0.1582,0,0,0.1534,0.1534,0,0,0,0,0,0,0,0,0.1762,0.1758,0.1709,0.1704,0.1698,0.1651,0.1684,0.1655,0.1601,0.1636,0.1595,0.1592,0.1575,0.1572,0.1565,0.1579,0.1576,0.1534,0.1533,0.1533,0.1533,0,0,0,0,0,0,0,0.1764,0.1761,0.1731,0.1709,0.1702,0.1679,0.1671,0.1678,0.162,0.1633,0.1626,0.162,0.1572,0.1566,0.1563,0.1575,0.1534,0.1533,0.1533,0.1533,0.162,0.1623,0,0,0,0,0,0,0.1775,0.1763,0.1733,0.1729,0.1725,0.168,0.1672,0.1669,0.162,0.161,0.1622,0.1616,0.1567,0.1564,0.1561,0.161,0.1533,0.1533,0.1533,0.1618,0.1621,0.1623,0,0,0,0,0,0,0.1776,0.1773,0.1735,0.1744,0.1737,0.1682,0.168,0.1669,0.1663,0.1612,0.1601,0.1626,0.1565,0.1561,0.1576,0.1607,0.1533,0.1533,0.1615,0.1619,0.1622,0.1712,0,0,0,0,0,0,0.1778,0.1774,0.1792,0.1745,0.1737,0.1752,0.1682,0.167,0.1662,0.1654,0.1613,0.1604,0.1563,0.1577,0.1576,0.1606,0.1533,0.1612,0.1617,0.1621,0.1706,0.1719,0.1729,0,0,0,0,0,0.1779,0.1821,0.1793,0.179,0.1758,0.1754,0.1749,0.17,0.1665,0.1682,0.1649,0.1605,0.1604,0.1579,0.1577,0.1608,0.161,0.1615,0.1621,0.1701,0.1716,0.1729,0,0,0,0,0,0,0.1876,0.1814,0.1783,0.1811,0.1788,0.1738,0.1758,0.1718,0.1706,0.1699,0.1639,0.1631,0.1652,0.1632,0.1605,0.1649,0.16,0.1605,0.1662,0.1676,0.1687,0.1691,0.1533,0,0,0,0,0,0.19,0.19,0.1847,0.1877,0.1867,0.1815,0.1811,0.1775,0.1749,0.174,0.1707,0.1685,0.1678,0.1676,0.1668,0.1703,0.1691,0.1722,0.1734,0.1743,0.1749,0.1762,0.1774,0.1641,0.1641,0.1641,0,0,0.1951,0.1917,0.1922,0.1896,0.1874,0.1875,0.1808,0.1813,0.1813,0.1741,0.1751,0.1727,0.1697,0.1721,0.1731,0.1705,0.1782,0.175,0.1758,0.1758,0.1769,0.1781,0.1793,0.1645,0.1644,0.1644,0,0,0.2043,0.2019,0.2039,0.2017,0.1984,0.1948,0.1953,0.1908,0.1888,0.1898,0.1842,0.1842,0.1834,0.1814,0.1803,0.1883,0.1842,0.1882,0.1942,0.1956,0.1966,0.1975,0.2001,0.2012,0.1888,0.1888,0.1888,0,0.2111,0.211,0.2055,0.2062,0.2052,0.1983,0.2003,0.1985,0.1951,0.1945,0.1916,0.1902,0.1877,0.1894,0.1913,0.1907,0.191,0.1887,0.1969,0.1977,0.1985,0.2009,0.202,0.1893,0.1892,0.1892,0.1892,0,0.2193,0.2194,0.2214,0.218,0.2172,0.2186,0.2132,0.213,0.2094,0.2061,0.207,0.2038,0.202,0.2021,0.1988,0.2032,0.2017,0.198,0.1929,0.2003,0.2025,0.2034,0.19,0.1898,0.1897,0.1896,0,0,0.2347,0.2279,0.2288,0.227,0.2226,0.2225,0.2235,0.2216,0.2214,0.2192,0.2198,0.219,0.2154,0.2141,0.2104,0.2116,0.2178,0.2076,0.2075,0.2095,0.2223,0.225,0.2262,0.215,0.2152,0.2153,0.2224,0,0.243,0.2441,0.239,0.2415,0.2413,0.2346,0.2354,0.2328,0.2296,0.229,0.2256,0.225,0.2204,0.2195,0.2204,0.2169,0.2203,0.2163,0.2154,0.2154,0.2162,0.2274,0.2304,0.2373,0.2233,0.2234,0.2235,0,0.2528,0.2508,0.2532,0.2483,0.248,0.2489,0.2465,0.246,0.2428,0.2404,0.2388,0.2343,0.2348,0.23,0.2305,0.2279,0.2272,0.2254,0.2255,0.2252,0.2199,0.2272,0.2394,0.2404,0.2249,0.2248,0.2247,0,0.2635,0.2615,0.2625,0.2612,0.2556,0.2563,0.254,0.2505,0.2495,0.2475,0.2468,0.2449,0.2439,0.2425,0.2376,0.2346,0.2386,0.2334,0.2365,0.2366,0.2377,0.2377,0.2498,0.2375,0.2374,0.2374,0.2374,0,0.2732,0.2748,0.2671,0.2678,0.2694,0.2634,0.2652,0.2623,0.2591,0.259,0.2533,0.2533,0.2469,0.2462,0.2424,0.2432,0.2429,0.2409,0.2398,0.2413,0.2416,0.2408,0.2401,0.2377,0.2376,0.2376,0.2375,0,0.2854,0.2803,0.281,0.2754,0.2741,0.2755,0.2707,0.2711,0.2675,0.2674,0.267,0.2614,0.2602,0.2552,0.2529,0.2503,0.2524,0.2504,0.2534,0.2527,0.256,0.2557,0.268,0.2692,0.2563,0.2564,0.2565,0,0.2918,0.2929,0.2874,0.2868,0.2847,0.2839,0.2828,0.2769,0.276,0.2722,0.2729,0.2712,0.2696,0.268,0.2637,0.2619,0.2597,0.2641,0.2594,0.2608,0.2595,0.2595,0.2595,0.2651,0.2653,0.2654,0.2656,0,0.3038,0.3011,0.2997,0.2973,0.296,0.2939,0.2915,0.2914,0.2848,0.284,0.2826,0.2813,0.2788,0.2771,0.2745,0.2721,0.2677,0.267,0.2676,0.2691,0.2707,0.2697,0.256,0.2668,0.2667,0.2666,0.2665,0.2665,0.3131,0.3136,0.3097,0.3082,0.3057,0.3034,0.3033,0.2995,0.2982,0.2956,0.2922,0.2912,0.2876,0.2836,0.2815,0.2806,0.2781,0.2791,0.2793,0.2796,0.2802,0.2709,0.2801,0.2801,0.28,0.28,0.28,0,0.3246,0.3216,0.3203,0.3168,0.3156,0.3114,0.3084,0.3076,0.3067,0.3037,0.3021,0.3004,0.2986,0.2941,0.2919,0.292,0.2899,0.2916,0.2915,0.291,0.2826,0.2822,0.2933,0.2933,0.2933,0.2933,0.2933,0.2933,0.3303,0.3308,0.3277,0.3268,0.3238,0.3226,0.3212,0.3191,0.3166,0.3148,0.3133,0.3102,0.3065,0.304,0.3021,0.3008,0.3002,0.3026,0.3006,0.2929,0.2916,0.2904,0.29,0.3025,0.3025,0.309,0.3091,0.3091]}]]